Flag for Canada Weather past 2 weeks in Kamloops, British Columbia, Canada

Now
68 °F

Broken clouds.


Feels Like: 68 °F
Forecast: 58 / 71 °F
Wind: 6 mph from West

Location: Kamloops

Current Time: May 24, 2015 at 4:38:12 PM

Latest Report: May 24, 2015 at 4:00 PM


Visibility: 40 mi

Pressure: 29.96 "Hg

Humidity: 56%

Dew point: 52 °F

Location of KamloopsLocation

Historic Weather in Kamloops — Graph

°F

Kamloops temperature yesterday

Maximum temperature yesterday: 81 °F (at 2:00 PM)
Minimum temperature yesterday: 61 °F (at 2:00 AM)
Average temperature yesterday: 68 °F

Past Weeks' High & Low Weather Summary

 TemperatureHumidityPressure
High88 °F (May 21, 3:00 PM)88% (May 18, 3:00 AM)30.17 "Hg (May 18, 3:00 AM)
Low43 °F (May 12, 6:00 AM)12% (May 9, 3:00 PM)29.69 "Hg (May 13, 3:00 PM)
Average64 °F47%29.92 "Hg
* Reported May 9 3:00 PM — May 24 3:00 PM, Kamloops, Weather by CustomWeather, © 2015

Note: Actual official high and low records may vary slightly from our data, if they occured in-between our weather recording intervals... More about our weather records

Advertising

Kamloops weather history for previous 24 hours

 ConditionsComfort  
Time TempWeatherWind HumidityBarometerVisibility
3:00 PM
Sun, May 24
64 °FPartly sunny.9 mph73%29.98 "Hg40 mi
2:00 PM64 °FSprinkles. Partly sunny.2 mph64%29.99 "Hg40 mi
1:00 PM64 °FBroken clouds.12 mph60%30.01 "Hg40 mi
12:00 PM64 °FBroken clouds.10 mph68%30.03 "Hg40 mi
11:00 AM63 °FBroken clouds.7 mph73%30.04 "Hg40 mi
10:00 AM61 °FBroken clouds.No wind77%30.06 "Hg40 mi
9:52 AM59 °FBroken clouds.No wind82%30.06 "Hg40 mi
9:00 AM59 °FSprinkles. Partly sunny.3 mph82%30.06 "Hg40 mi
8:00 AM57 °FSprinkles. Partly sunny.7 mph82%30.06 "Hg40 mi
7:49 AM57 °FSprinkles. Partly sunny.9 mph82%30.06 "Hg40 mi
7:00 AM57 °FBroken clouds.3 mph88%30.06 "Hg40 mi
6:51 AM57 °FPartly sunny.5 mph88%30.06 "Hg40 mi
6:00 AM57 °FPassing clouds.6 mph82%30.06 "Hg40 mi
5:00 AM57 °FOvercast.8 mph82%30.06 "Hg40 mi
4:00 AM57 °FMostly cloudy.9 mph82%30.06 "Hg40 mi
3:00 AM59 °FLight rain. Mostly cloudy.13 mph77%30.05 "Hg40 mi
2:00 AM59 °FLight rain. Overcast.9 mph77%30.06 "Hg40 mi
1:00 AM59 °FLight rain. Passing clouds.12 mph77%30.06 "Hg40 mi
12:00 AM59 °FLight rain. Passing clouds.9 mph77%30.06 "Hg40 mi
11:00 PM
Sat, May 23
61 °FPassing clouds.9 mph72%30.05 "Hg40 mi
10:00 PM64 °FPassing clouds.10 mph60%30.06 "Hg40 mi
9:00 PM63 °FMostly cloudy.15 mph64%30.04 "Hg40 mi
8:00 PM64 °FCloudy.22 mph64%30.03 "Hg40 mi
7:00 PM70 °FSprinkles. Cloudy.20 mph50%30.01 "Hg40 mi
6:47 PM70 °FCloudy.18 mph46%29.99 "Hg30 mi
6:00 PM72 °FThunderstorms. Broken clouds.23 mph41%29.93 "Hg20 mi
5:00 PM73 °FBroken clouds.7 mph38%29.90 "Hg40 mi
4:00 PM75 °FBroken clouds.8 mph34%29.90 "Hg40 mi
Weather by CustomWeather, © 2015

See weather overviewHow to use our weather pages